BAW429 EGCC-EHAM

Flight info

Callsign BAW429
Flight time 0h 46m
Altitude 33000
Route DESIG L603 LAMSO
Aircraft A388/J-SADE2E3FGHIJ3J4J5M1RWXY/LB1D1

Departure

Time 2026-05-05 18:27
Airport Manchester Airport (EGCC)

Arrival

Time 2026-05-05 19:13
Airport Amsterdam Airport Schiphol (EHAM)
Time Latitude Longitude Altitude Speed Heading
2026-05-05 17:48 53.36571 -2.28356 260 ft 0 kts 315°
2026-05-05 18:15 53.36567 -2.28351 260 ft 4 kts 293°
2026-05-05 18:15 53.36567 -2.28347 260 ft 4 kts 257°
2026-05-05 18:16 53.36565 -2.28319 264 ft 4 kts 294°
2026-05-05 18:16 53.36555 -2.28277 266 ft 4 kts 288°
2026-05-05 18:16 53.36547 -2.28234 263 ft 4 kts 282°
2026-05-05 18:16 53.36542 -2.28189 261 ft 4 kts 277°
2026-05-05 18:17 53.36540 -2.28144 263 ft 4 kts 273°
2026-05-05 18:17 53.36538 -2.28099 264 ft 4 kts 283°
2026-05-05 18:17 53.36532 -2.28073 265 ft 0 kts 315°
2026-05-05 18:21 53.36549 -2.28102 265 ft 7 kts 313°
2026-05-05 18:21 53.36557 -2.28176 263 ft 8 kts 249°
2026-05-05 18:21 53.36519 -2.28267 260 ft 11 kts 232°
2026-05-05 18:22 53.36446 -2.28376 260 ft 16 kts 214°
2026-05-05 18:22 53.36348 -2.28458 260 ft 15 kts 165°
2026-05-05 18:22 53.36259 -2.28328 260 ft 25 kts 133°
2026-05-05 18:22 53.36099 -2.28060 260 ft 33 kts 137°
2026-05-05 18:23 53.35920 -2.27854 260 ft 30 kts 172°
2026-05-05 18:23 53.35711 -2.27880 250 ft 31 kts 184°
2026-05-05 18:23 53.35493 -2.27919 245 ft 29 kts 194°
2026-05-05 18:23 53.35341 -2.28110 241 ft 27 kts 223°
2026-05-05 18:24 53.35221 -2.28321 237 ft 22 kts 229°
2026-05-05 18:24 53.35116 -2.28541 235 ft 25 kts 232°
2026-05-05 18:24 53.35006 -2.28756 235 ft 25 kts 226°
2026-05-05 18:24 53.34882 -2.28973 229 ft 27 kts 226°
2026-05-05 18:25 53.34783 -2.29160 225 ft 17 kts 231°
2026-05-05 18:25 53.34726 -2.29271 221 ft 20 kts 222°
2026-05-05 18:25 53.34682 -2.29321 219 ft 11 kts 203°
2026-05-05 18:25 53.34595 -2.29336 218 ft 14 kts 172°
2026-05-05 18:26 53.34555 -2.29249 218 ft 11 kts 88°
2026-05-05 18:26 53.34590 -2.29116 227 ft 14 kts 52°
2026-05-05 18:26 53.34654 -2.28985 227 ft 14 kts 51°
2026-05-05 18:26 53.34827 -2.28628 239 ft 80 kts 51°
2026-05-05 18:27 53.35335 -2.27576 247 ft 146 kts 51°
2026-05-05 18:27 53.36045 -2.26119 454 ft 170 kts 51°
2026-05-05 18:27 53.36804 -2.24584 1025 ft 167 kts 50°
2026-05-05 18:27 53.37521 -2.23097 1708 ft 163 kts 51°
2026-05-05 18:28 53.38951 -2.19780 2502 ft 193 kts 54°
2026-05-05 18:28 53.39781 -2.17893 2758 ft 212 kts 52°
2026-05-05 18:28 53.40745 -2.15816 3194 ft 236 kts 51°
2026-05-05 18:29 53.41823 -2.13555 3718 ft 259 kts 51°
2026-05-05 18:29 53.42971 -2.11167 4533 ft 266 kts 51°
2026-05-05 18:29 53.44133 -2.08757 5670 ft 270 kts 51°
2026-05-05 18:29 53.45315 -2.06301 6716 ft 269 kts 50°
2026-05-05 18:30 53.46509 -2.03818 7495 ft 279 kts 49°
2026-05-05 18:30 53.47732 -2.01274 8437 ft 282 kts 49°
2026-05-05 18:30 53.48970 -1.98705 9385 ft 285 kts 49°
2026-05-05 18:30 53.50002 -1.95822 10231 ft 295 kts 68°
2026-05-05 18:31 53.50323 -1.92298 10648 ft 320 kts 90°
2026-05-05 18:31 53.50074 -1.88464 10933 ft 341 kts 98°
2026-05-05 18:31 53.49636 -1.84442 11341 ft 356 kts 99°
2026-05-05 18:31 53.49203 -1.80374 11996 ft 362 kts 98°
2026-05-05 18:32 53.48806 -1.76200 12872 ft 362 kts 98°
2026-05-05 18:32 53.48442 -1.72006 13668 ft 365 kts 97°
2026-05-05 18:32 53.48091 -1.67736 14244 ft 372 kts 97°
2026-05-05 18:32 53.47743 -1.63407 14922 ft 375 kts 97°
2026-05-05 18:33 53.47352 -1.59058 15660 ft 376 kts 102°
2026-05-05 18:33 53.46658 -1.54780 16233 ft 382 kts 108°
2026-05-05 18:33 53.45874 -1.50502 16916 ft 385 kts 108°
2026-05-05 18:33 53.45094 -1.46192 17579 ft 388 kts 107°
2026-05-05 18:34 53.44311 -1.41847 18231 ft 391 kts 108°
2026-05-05 18:34 53.43521 -1.37463 18758 ft 395 kts 108°
2026-05-05 18:34 53.42721 -1.33035 19330 ft 398 kts 108°
2026-05-05 18:34 53.41914 -1.28575 19869 ft 401 kts 108°
2026-05-05 18:35 53.41100 -1.24092 20401 ft 404 kts 108°
2026-05-05 18:35 53.40277 -1.19559 20924 ft 407 kts 108°
2026-05-05 18:35 53.39450 -1.15018 21450 ft 410 kts 109°
2026-05-05 18:35 53.38612 -1.10437 21969 ft 413 kts 109°
2026-05-05 18:36 53.37765 -1.05811 22487 ft 416 kts 109°
2026-05-05 18:36 53.36909 -1.01156 22968 ft 420 kts 109°
2026-05-05 18:36 53.36041 -0.96444 23397 ft 425 kts 109°
2026-05-05 18:36 53.35167 -0.91711 23861 ft 427 kts 109°
2026-05-05 18:37 53.34286 -0.86951 24348 ft 429 kts 109°
2026-05-05 18:37 53.33411 -0.82233 24811 ft 431 kts 109°
2026-05-05 18:37 53.32519 -0.77436 25278 ft 433 kts 109°
2026-05-05 18:37 53.31623 -0.72633 25758 ft 435 kts 109°
2026-05-05 18:38 53.30717 -0.67789 26257 ft 437 kts 109°
2026-05-05 18:38 53.29803 -0.62917 26783 ft 440 kts 109°
2026-05-05 18:38 53.28885 -0.58028 27319 ft 442 kts 109°
2026-05-05 18:38 53.27959 -0.53114 27875 ft 445 kts 109°
2026-05-05 18:39 53.27024 -0.48169 28400 ft 448 kts 109°
2026-05-05 18:39 53.26084 -0.43202 28949 ft 451 kts 109°
2026-05-05 18:39 53.25131 -0.38187 29494 ft 454 kts 110°
2026-05-05 18:39 53.24174 -0.33152 29986 ft 458 kts 110°
2026-05-05 18:40 53.23201 -0.28058 30476 ft 460 kts 110°
2026-05-05 18:40 53.22225 -0.22964 30982 ft 463 kts 110°
2026-05-05 18:40 53.21237 -0.17826 31454 ft 466 kts 110°
2026-05-05 18:40 53.20243 -0.12663 31931 ft 468 kts 110°
2026-05-05 18:41 53.19245 -0.07494 32397 ft 471 kts 110°
2026-05-05 18:41 53.18235 -0.02271 32843 ft 474 kts 110°
2026-05-05 18:41 53.17211 0.03004 33004 ft 480 kts 110°
2026-05-05 18:41 53.16184 0.08284 32993 ft 479 kts 110°
2026-05-05 18:42 53.14127 0.18819 32993 ft 478 kts 110°
2026-05-05 18:42 53.12060 0.29337 32988 ft 478 kts 110°
2026-05-05 18:43 53.09995 0.39789 32990 ft 478 kts 111°
2026-05-05 18:43 53.07908 0.50296 32988 ft 478 kts 111°
2026-05-05 18:44 53.05806 0.60821 32987 ft 480 kts 111°
2026-05-05 18:44 53.03697 0.71323 32982 ft 479 kts 111°
2026-05-05 18:45 53.01577 0.81825 32979 ft 479 kts 111°
2026-05-05 18:45 52.99452 0.92300 32982 ft 478 kts 112°
2026-05-05 18:46 52.97513 1.02879 32971 ft 481 kts 104°
2026-05-05 18:46 52.96286 1.13761 32980 ft 480 kts 104°
2026-05-05 18:47 52.95032 1.24640 32978 ft 479 kts 104°
2026-05-05 18:47 52.93763 1.35492 32980 ft 479 kts 104°
2026-05-05 18:48 52.92492 1.46275 32978 ft 480 kts 104°
2026-05-05 18:48 52.91203 1.57109 32985 ft 478 kts 104°
2026-05-05 18:49 52.89910 1.67900 32960 ft 477 kts 104°
2026-05-05 18:49 52.88609 1.78665 32968 ft 477 kts 104°
2026-05-05 18:50 52.87296 1.89448 32971 ft 477 kts 104°
2026-05-05 18:50 52.86198 1.98395 32919 ft 474 kts 104°
2026-05-05 18:51 52.85542 2.03729 32455 ft 471 kts 104°
2026-05-05 18:51 52.84886 2.09030 31902 ft 467 kts 104°
2026-05-05 18:51 52.84237 2.14251 31323 ft 462 kts 105°
2026-05-05 18:51 52.83589 2.19443 30743 ft 458 kts 105°
2026-05-05 18:52 52.82947 2.24567 30173 ft 454 kts 105°
2026-05-05 18:52 52.82306 2.29665 29534 ft 450 kts 105°
2026-05-05 18:52 52.81673 2.34678 28896 ft 446 kts 104°
2026-05-05 18:52 52.81038 2.39681 28236 ft 442 kts 104°
2026-05-05 18:53 52.80408 2.44633 27586 ft 438 kts 104°
2026-05-05 18:53 52.79781 2.49555 26976 ft 435 kts 104°
2026-05-05 18:53 52.79160 2.54413 26421 ft 430 kts 104°
2026-05-05 18:53 52.78543 2.59213 25846 ft 425 kts 104°
2026-05-05 18:54 52.77928 2.63974 25261 ft 422 kts 104°
2026-05-05 18:54 52.77326 2.68629 24705 ft 418 kts 104°
2026-05-05 18:54 52.76718 2.73310 24147 ft 415 kts 103°
2026-05-05 18:54 52.76115 2.77936 23595 ft 412 kts 103°
2026-05-05 18:55 52.75516 2.82528 23080 ft 407 kts 103°
2026-05-05 18:55 52.74918 2.87093 22951 ft 407 kts 103°
2026-05-05 18:55 52.74316 2.91670 22966 ft 409 kts 103°
2026-05-05 18:55 52.73676 2.96238 22949 ft 408 kts 107°
2026-05-05 18:56 52.72731 3.00641 22948 ft 407 kts 115°
2026-05-05 18:56 52.71452 3.04772 22947 ft 402 kts 123°
2026-05-05 18:56 52.70036 3.08729 22947 ft 402 kts 122°
2026-05-05 18:56 52.68630 3.12718 22947 ft 402 kts 122°
2026-05-05 18:57 52.67226 3.16718 22902 ft 401 kts 121°
2026-05-05 18:57 52.65880 3.20715 22467 ft 399 kts 116°
2026-05-05 18:57 52.64987 3.25053 21869 ft 400 kts 108°
2026-05-05 18:57 52.64263 3.29470 21271 ft 397 kts 107°
2026-05-05 18:58 52.63560 3.33854 20676 ft 393 kts 107°
2026-05-05 18:58 52.62846 3.38194 20038 ft 392 kts 107°
2026-05-05 18:58 52.62116 3.42515 19409 ft 391 kts 107°
2026-05-05 18:58 52.61377 3.46796 18879 ft 387 kts 107°
2026-05-05 18:59 52.60651 3.50965 18370 ft 383 kts 107°
2026-05-05 18:59 52.59916 3.55169 17726 ft 381 kts 107°
2026-05-05 18:59 52.59179 3.59368 17105 ft 379 kts 107°
2026-05-05 18:59 52.58452 3.63505 16539 ft 376 kts 107°
2026-05-05 19:00 52.57730 3.67605 15926 ft 373 kts 107°
2026-05-05 19:00 52.57007 3.71698 15246 ft 374 kts 107°
2026-05-05 19:00 52.56282 3.75793 14758 ft 369 kts 107°
2026-05-05 19:00 52.55567 3.79822 14368 ft 362 kts 107°
2026-05-05 19:01 52.54877 3.83710 14220 ft 348 kts 107°
2026-05-05 19:01 52.54211 3.87451 14081 ft 336 kts 107°
2026-05-05 19:01 52.53566 3.91066 13952 ft 324 kts 107°
2026-05-05 19:01 52.52935 3.94592 13576 ft 319 kts 107°
2026-05-05 19:02 52.52245 3.98070 12836 ft 323 kts 112°
2026-05-05 19:02 52.51387 4.01516 12053 ft 332 kts 112°
2026-05-05 19:02 52.50508 4.05122 11301 ft 346 kts 111°
2026-05-05 19:02 52.49617 4.08801 10553 ft 347 kts 111°
2026-05-05 19:03 52.48650 4.12340 9830 ft 342 kts 123°
2026-05-05 19:03 52.47058 4.15145 9389 ft 328 kts 141°
2026-05-05 19:03 52.45311 4.17361 9176 ft 309 kts 142°
2026-05-05 19:03 52.43652 4.19437 8940 ft 292 kts 142°
2026-05-05 19:04 52.42042 4.21425 8357 ft 291 kts 142°
2026-05-05 19:04 52.40418 4.23405 7812 ft 289 kts 142°
2026-05-05 19:04 52.38808 4.25355 7248 ft 287 kts 142°
2026-05-05 19:04 52.37201 4.27284 6728 ft 284 kts 142°
2026-05-05 19:05 52.35623 4.29184 6248 ft 280 kts 142°
2026-05-05 19:05 52.34041 4.31057 5691 ft 278 kts 142°
2026-05-05 19:05 52.32467 4.32886 5125 ft 277 kts 142°
2026-05-05 19:05 52.30920 4.34611 4942 ft 262 kts 142°
2026-05-05 19:06 52.29448 4.36200 4804 ft 243 kts 142°
2026-05-05 19:06 52.28084 4.37652 4647 ft 226 kts 142°
2026-05-05 19:06 52.26813 4.39020 4541 ft 209 kts 142°
2026-05-05 19:06 52.25673 4.40223 4267 ft 186 kts 142°
2026-05-05 19:07 52.24583 4.41352 3376 ft 190 kts 142°
2026-05-05 19:07 52.23451 4.42515 2556 ft 192 kts 142°
2026-05-05 19:07 52.22336 4.43651 2109 ft 190 kts 142°
2026-05-05 19:07 52.21226 4.44822 1989 ft 189 kts 134°
2026-05-05 19:08 52.20558 4.46536 1995 ft 177 kts 97°
2026-05-05 19:08 52.20392 4.48492 1994 ft 172 kts 92°
2026-05-05 19:08 52.20355 4.50407 1992 ft 167 kts 76°
2026-05-05 19:08 52.20703 4.52182 1997 ft 164 kts 62°
2026-05-05 19:09 52.21249 4.53833 1987 ft 166 kts 56°
2026-05-05 19:09 52.21854 4.55418 1984 ft 163 kts 55°
2026-05-05 19:09 52.22462 4.56994 1987 ft 164 kts 55°
2026-05-05 19:09 52.23063 4.58556 1984 ft 158 kts 55°
2026-05-05 19:10 52.23626 4.60017 1972 ft 147 kts 55°
2026-05-05 19:10 52.24158 4.61391 1776 ft 146 kts 55°
2026-05-05 19:10 52.24694 4.62786 1585 ft 141 kts 54°
2026-05-05 19:10 52.25212 4.64126 1393 ft 141 kts 56°
2026-05-05 19:11 52.25729 4.65470 1205 ft 141 kts 55°
2026-05-05 19:11 52.26249 4.66818 1016 ft 138 kts 55°
2026-05-05 19:11 52.26751 4.68121 821 ft 132 kts 54°
2026-05-05 19:11 52.27225 4.69354 655 ft 126 kts 53°
2026-05-05 19:12 52.27695 4.70576 476 ft 126 kts 52°
2026-05-05 19:12 52.28177 4.71794 303 ft 129 kts 52°
2026-05-05 19:12 52.28648 4.73046 111 ft 128 kts 54°
2026-05-05 19:12 52.29117 4.74263 8 ft 113 kts 55°
2026-05-05 19:13 52.29450 4.75132 2 ft 72 kts 58°
2026-05-05 19:13 52.29675 4.75714 3 ft 51 kts 56°
2026-05-05 19:13 52.29835 4.76132 1 ft 37 kts 57°
2026-05-05 19:13 52.29981 4.76473 3 ft 36 kts 42°
2026-05-05 19:14 52.30105 4.76607 4 ft 0 kts 27°
2026-05-05 19:15 52.30117 4.76616 4 ft 12 kts 27°
2026-05-05 19:15 52.30200 4.76686 4 ft 13 kts 26°
2026-05-05 19:15 52.30277 4.76753 4 ft 12 kts 40°
2026-05-05 19:15 52.30334 4.76877 4 ft 20 kts 58°
2026-05-05 19:16 52.30425 4.77116 4 ft 25 kts 58°
2026-05-05 19:16 52.30514 4.77346 4 ft 23 kts 57°
2026-05-05 19:16 52.30602 4.77550 4 ft 20 kts 36°
2026-05-05 19:16 52.30728 4.77597 4 ft 18 kts
2026-05-05 19:17 52.30850 4.77605 4 ft 17 kts
2026-05-05 19:17 52.30963 4.77620 4 ft 16 kts
2026-05-05 19:17 52.31094 4.77627 4 ft 20 kts
2026-05-05 19:17 52.31241 4.77643 4 ft 21 kts
2026-05-05 19:18 52.31374 4.77656 4 ft 18 kts
2026-05-05 19:18 52.31486 4.77604 4 ft 16 kts 323°
2026-05-05 19:18 52.31561 4.77465 4 ft 17 kts 295°
2026-05-05 19:18 52.31575 4.77282 4 ft 17 kts 252°
2026-05-05 19:19 52.31486 4.77194 4 ft 18 kts 184°
2026-05-05 19:19 52.31354 4.77160 6 ft 21 kts 214°
2026-05-05 19:19 52.31229 4.77024 4 ft 18 kts 212°
2026-05-05 19:19 52.31193 4.76956 4 ft 5 kts 277°
2026-05-05 19:20 52.31206 4.76906 4 ft 5 kts 294°
2026-05-05 19:20 52.31214 4.76879 4 ft 0 kts 301°